FENGYUN 1C DEB, 32168

Orbit data source: Space-Track

FENGYUN 1C DEB, 32168 is space debris in SSO originally from a launch on Mon, 10 May 1999 UTC launched from the Taiyaun Space Center, China (TSC). Fengyun 1C debris stems from the Chinese weather satellite Fengyun-1C, which was intentionally destroyed by a Chinese anti-satellite missile in 2007. This event dramatically increased the amount of space debris, with thousands of trackable fragments posing hazards to satellites and human spaceflight. The Fengyun 1C debris cloud has become a focal point in discussions about space sustainability and the need for international regulations to prevent the creation of new debris.

Loading next visibility...
Identifier
32168, 1999-025CTN
Orbit
SSO
Country
Flag of CNCN / PRC
Related business
Manufacturer
Unknown
Mission
Spacecraft
Bus & Motor
Unknown
Mass
Unknown
Launch date (UTC)
1999-05-10 (27 years ago)
Launch vehicle
Unknown
Launch site
Taiyaun Space Center, China (TSC)
Object type
Payload
Rocket body
Debris
Shape & HBR
Unknown shape, 0.1 m
Radar Cross Section
Small (<0.1 m²)

Expand to show TLE details & history
Last TLE update: 2 days ago

TLE from 2 days ago
0 FENGYUN 1C DEB
1 32168U 99025CTN 26061.07631592  .00001755  00000-0  12532-2 0  9996
2 32168 101.6498 154.4413 0237132  43.4376 318.5189 13.86594214645797
Epoch: 2026-03-02T01:49Z
TLE epoch observation values (Epoch: 2026-03-02T01:49:53.695Z)
Latitude
-0.00001°
Longitude
-32.90735°
Altitude
815.164 km
Speed
7.511 km/s
True Right ascension
10h 17m 45s
True Declination
0° 00' 00"
Sunlit
Object was in full shadow at epoch
Visualization orbit readout
Latitude
Unknown
Longitude
Unknown
Altitude
Unknown
Speed
Unknown
Apparent Right ascension
Unknown
Apparent Declination
Unknown
Sunlit
N/A
Visualization observer readout
Local Sidereal Time
01:09:34
Azimuth
Unknown
Elevation
Unknown
Doppler factor
Unknown
Orbital elements
Apogee altitude
1,111.441 km
Perigee altitude
764.465 km
Semi-major axis
7,316.09 km
Eccentricity
0.02371
Inclination
101.6498°
RAAN
154.4413°
Arg. of periapsis
43.4376°
True anomaly
316.67849°
Mean anomaly
318.5189°
Eccentric anomaly
317.6028°
Mean motion
3.46836 °/min
Orbital period
103.8 mins
BSTAR
0.0012532
Loading maneuver chart data...
Computing Atmospheric mass density...

Documentation

Showing up to 5 results
|